Temp
86 86 78 70 70 70 70 70 70 70 70 69 69 69 69 69 69 70 69 69 69 68 68 67 67 67 66 66 66 66 80 83
86 85 86 85 84 69 69 69 69 69 69 68 68 68 68 68 69 69 68 68 67 67 66 66 65 65 65 65 65 68 81 81
84 85 84 84 85 79 71 69 69 68 70 68 69 84 81 78 67 67 67 67 66 66 65 64 64 64 64 64 64 82 80 83
86 83 82 83 86 84 83 83 86 84 83 81 85 80 80 77 72 66 66 66 65 64 64 64 65 81 79 67 80 78 79 80
84 82 81 81 84 87 88 88 86 85 81 80 81 79 80 80 80 80 79 70 79 75 76 79 75 76 78 77 77 76 79 80
85 83 80 80 85 86 87 85 86 84 84 78 79 80 79 78 79 79 77 79 76 77 78 74 74 74 74 74 74 76 80 80
85 83 81 81 79 84 83 81 84 82 82 81 79 79 78 78 77 78 78 78 78 76 77 76 74 74 74 73 74 74 74 78
85 83 81 81 81 80 82 82 83 82 82 81 78 77 77 77 77 78 79 79 78 77 76 75 75 74 73 72 73 74 75 74
84 82 82 80 80 80 82 84 81 81 82 79 77 77 77 76 77 77 78 78 75 75 74 74 73 75 72 73 72 72 73 72
84 82 81 81 80 82 83 84 81 81 81 79 77 75 75 75 76 76 77 76 76 75 75 74 73 73 72 74 74 74 72 72
82 81 81 81 80 81 80 78 79 82 80 80 78 76 75 74 75 76 75 75 75 74 74 73 71 73 73 73 73 73 73 74
81 81 79 78 81 79 80 80 80 80 80 80 77 76 74 73 74 74 74 73 73 73 71 73 72 71 73 73 72 73 73 72
78 77 75 79 81 77 79 77 78 79 80 76 75 75 73 72 73 73 72 72 70 70 70 68 69 71 67 68 70 71 69 71
75 75 74 76 80 78 75 74 77 76 76 75 75 72 72 72 70 70 70 70 69 68 67 67 68 69 65 65 62 67 70 70
74 74 74 73 73 77 77 77 76 75 71 72 73 71 70 70 69 68 68 68 68 68 67 66 64 67 68 63 60 59 65 71
73 73 73 72 71 72 69 70 67 68 70 71 70 70 68 68 67 67 66 66 65 66 67 65 64 62 66 66 65 63 58 56
72 72 72 71 70 68 69 67 69 69 68 65 67 69 69 68 66 64 64 64 63 61 60 60 61 58 59 57 53 55 59 55
71 71 71 70 69 68 66 64 62 63 65 64 66 66 67 66 64 62 61 61 59 58 53 50 49 49 47 45 44 42 44 42
70 70 69 70 67 65 63 65 64 63 63 63 61 62 63 62 60 60 62 58 54 52 50 47 44 41 40 39 39 38 38 36
68 68 68 68 67 65 66 65 65 64 63 61 59 60 60 59 59 60 58 57 54 50 47 44 43 43 44 43 43 42 43 42
MSLP
1017.84 1018.03 1018.71 1019.27 1019.58 1019.56 1019.81 1019.86 1019.74 1019.78 1019.77 1019.76 1019.81 1019.91 1020.04 1020.14 1020.22 1020.23 1020.29 1020.38 1020.43 1020.39 1020.31 1020.25 1020.11 1020.02 1019.87 1019.74 1019.63 1019.34 1018.18 1017.81
1017.80 1018.10 1018.43 1018.54 1018.62 1019.58 1019.90 1019.79 1019.80 1019.86 1019.89 1019.98 1020.11 1020.10 1020.25 1020.30 1020.22 1020.35 1020.50 1020.55 1020.50 1020.48 1020.41 1020.38 1020.39 1020.25 1020.06 1019.93 1019.69 1019.09 1017.99 1017.91
1017.92 1017.93 1018.55 1018.76 1018.73 1019.34 1019.77 1019.79 1019.96 1019.97 1019.91 1020.06 1019.95 1019.31 1019.50 1019.59 1020.43 1020.57 1020.58 1020.54 1020.53 1020.48 1020.38 1020.28 1020.16 1019.97 1019.92 1019.82 1019.50 1018.14 1018.22 1017.76
1017.74 1018.05 1018.47 1018.71 1018.91 1019.07 1019.14 1019.24 1019.08 1019.20 1019.20 1019.41 1019.23 1019.46 1019.49 1019.76 1020.09 1020.40 1020.40 1020.42 1020.36 1020.28 1020.15 1020.04 1019.74 1018.71 1018.67 1019.25 1018.38 1018.55 1018.27 1018.06
1017.62 1018.13 1018.54 1018.71 1018.71 1018.68 1018.60 1018.75 1018.91 1019.00 1019.34 1019.39 1019.36 1019.47 1019.43 1019.49 1019.47 1019.49 1019.55 1019.95 1019.31 1019.43 1019.38 1019.06 1019.15 1019.09 1018.70 1018.67 1018.48 1018.64 1018.11 1017.92
1017.38 1018.05 1018.57 1018.89 1018.67 1018.50 1018.58 1018.68 1018.80 1018.94 1019.05 1019.54 1019.44 1019.20 1019.33 1019.48 1019.35 1019.36 1019.42 1019.25 1019.41 1019.15 1018.94 1019.20 1019.25 1019.13 1019.09 1019.01 1018.81 1018.50 1017.93 1017.90
1017.15 1017.77 1018.37 1018.66 1018.87 1018.65 1018.85 1018.96 1018.88 1019.06 1019.13 1019.24 1019.52 1019.29 1019.27 1019.35 1019.34 1019.35 1019.24 1019.16 1019.06 1019.00 1018.82 1018.82 1018.91 1018.97 1019.04 1019.01 1018.77 1018.63 1018.51 1018.08
1017.01 1017.60 1018.06 1018.38 1018.48 1018.77 1018.72 1018.86 1018.89 1019.08 1019.17 1019.32 1019.67 1019.61 1019.40 1019.26 1019.14 1019.00 1018.83 1018.70 1018.67 1018.69 1018.57 1018.55 1018.37 1018.50 1018.52 1018.62 1018.58 1018.39 1018.16 1018.21
1016.85 1017.50 1017.96 1018.28 1018.43 1018.67 1018.70 1018.70 1019.20 1019.14 1019.15 1019.40 1019.54 1019.62 1019.38 1019.35 1019.04 1018.87 1018.62 1018.55 1018.69 1018.63 1018.50 1018.46 1018.30 1017.96 1018.00 1018.02 1018.05 1018.11 1017.86 1017.95
1016.83 1017.36 1017.71 1018.14 1018.40 1018.68 1018.76 1018.89 1019.11 1019.09 1019.11 1019.23 1019.40 1019.49 1019.52 1019.34 1018.80 1018.47 1018.34 1018.33 1018.22 1018.10 1018.01 1017.88 1017.83 1017.75 1017.54 1017.32 1017.33 1017.37 1017.51 1017.57
1016.63 1017.39 1017.67 1018.06 1018.46 1018.68 1018.95 1019.13 1019.00 1018.69 1018.91 1018.82 1018.97 1019.20 1019.27 1019.17 1018.61 1018.20 1018.21 1017.94 1017.68 1017.56 1017.45 1017.42 1017.22 1016.92 1016.77 1016.79 1016.80 1016.76 1016.77 1016.89
1017.02 1017.47 1017.92 1018.47 1018.64 1018.89 1018.78 1018.84 1018.79 1018.88 1018.67 1018.61 1018.91 1018.93 1019.08 1018.92 1018.44 1018.13 1018.05 1017.79 1017.44 1017.18 1017.05 1016.87 1016.66 1016.54 1016.07 1015.84 1015.93 1015.99 1016.00 1016.01
1017.41 1017.77 1018.58 1018.64 1018.71 1018.77 1018.61 1018.54 1018.48 1018.44 1018.53 1019.11 1019.19 1019.02 1018.93 1018.79 1018.40 1018.08 1017.77 1017.44 1017.24 1017.10 1016.75 1016.34 1016.19 1016.06 1016.04 1015.39 1015.15 1015.18 1015.48 1015.42
1018.19 1018.52 1018.80 1018.89 1018.91 1019.07 1019.24 1019.27 1018.90 1019.00 1018.85 1018.86 1018.68 1018.86 1018.74 1018.63 1018.47 1018.10 1017.65 1017.30 1016.93 1016.73 1016.56 1016.06 1015.61 1015.62 1015.27 1015.02 1014.00 1013.72 1013.64 1014.30
1018.53 1018.78 1019.07 1019.44 1019.44 1019.22 1019.07 1018.81 1018.72 1018.62 1018.93 1018.71 1018.53 1018.57 1018.55 1018.41 1018.09 1017.88 1017.49 1017.10 1016.49 1016.11 1015.99 1015.72 1015.06 1014.83 1014.65 1014.81 1013.72 1012.76 1012.75 1012.53
1019.24 1019.48 1019.57 1019.80 1019.81 1019.51 1019.55 1019.23 1019.17 1019.41 1019.23 1019.05 1019.06 1018.64 1018.31 1018.21 1017.86 1017.40 1017.06 1016.83 1016.39 1015.90 1015.70 1015.74 1015.56 1014.79 1014.51 1014.03 1014.03 1013.82 1013.25 1012.85
1019.89 1019.86 1019.99 1020.05 1020.03 1019.96 1019.56 1019.31 1019.11 1018.91 1018.84 1019.08 1018.78 1017.88 1017.65 1017.53 1017.63 1017.36 1016.91 1016.56 1016.25 1016.33 1016.23 1015.97 1015.84 1016.02 1015.56 1015.11 1015.00 1014.59 1014.37 1014.46
1019.98 1019.94 1019.92 1020.11 1020.04 1020.10 1020.19 1020.14 1019.76 1019.12 1018.79 1018.64 1018.21 1017.81 1017.42 1017.29 1017.49 1017.30 1017.03 1016.85 1016.84 1017.12 1017.59 1017.66 1017.70 1017.88 1017.90 1017.79 1017.47 1017.29 1016.52 1016.33
1019.84 1019.78 1019.68 1019.82 1019.93 1019.83 1019.69 1019.95 1019.52 1019.03 1018.84 1018.41 1018.12 1017.52 1017.22 1017.08 1017.47 1017.25 1017.09 1017.29 1017.55 1017.70 1017.97 1018.26 1018.66 1018.84 1018.91 1018.87 1018.80 1018.79 1018.86 1018.28
1019.92 1019.77 1019.60 1019.64 1019.69 1019.75 1019.52 1019.51 1019.24 1019.04 1018.84 1018.73 1018.35 1017.86 1017.47 1017.46 1017.56 1017.50 1017.39 1017.41 1017.56 1018.00 1018.39 1018.48 1018.34 1018.35 1018.27 1018.27 1018.32 1018.49 1018.55 1018.40
Wind_Speed
7 8 8 5 4 5 4 5 6 7 8 8 8 7 7 7 7 7 7 7 6 6 7 7 7 6 6 5 4 5 6 3
6 5 5 3 6 5 3 4 5 5 6 6 5 5 4 4 4 7 5 5 6 6 7 6 5 4 4 4 4 8 5 4
5 5 4 2 2 5 5 4 3 3 5 4 6 1 1 2 8 4 4 4 4 4 4 3 2 4 3 3 9 4 6 4
8 6 5 3 2 2 2 1 1 2 2 2 2 2 3 5 1 2 2 1 3 2 2 3 8 4 3 8 4 5 6 5
7 6 5 4 1 1 2 1 1 1 2 4 3 4 3 3 4 3 3 2 4 4 4 4 5 5 5 5 4 6 4 4
7 6 4 4 4 3 2 3 2 3 3 4 3 4 3 4 4 5 4 4 6 5 4 5 6 5 6 6 6 6 4 3
8 7 6 5 4 2 3 3 3 4 4 4 5 5 4 5 5 5 6 6 6 6 6 6 6 6 5 6 6 5 5 4
9 8 8 6 5 3 2 2 3 3 4 4 5 6 5 6 6 6 6 5 6 6 6 7 6 5 6 6 7 6 6 4
9 9 8 6 5 4 3 2 3 3 3 5 6 7 7 7 7 6 7 6 8 8 8 7 8 7 8 7 7 8 7 7
8 8 8 7 4 3 2 2 3 3 3 4 6 7 8 9 8 8 8 7 8 8 8 8 8 8 7 8 7 7 8 8
9 9 8 6 3 3 3 3 5 3 4 4 5 7 8 9 9 10 10 9 9 9 9 9 10 9 9 9 9 8 8 8
6 6 3 1 2 3 4 4 4 4 4 4 6 6 8 9 9 11 10 10 11 11 12 11 11 11 11 10 10 10 10 10
4 4 5 2 1 3 3 3 4 5 5 7 8 8 9 10 9 11 11 11 13 14 13 14 12 12 11 12 12 13 13 12
6 6 5 4 2 3 3 5 5 5 4 8 8 10 10 9 10 10 12 11 13 13 14 12 13 12 13 13 14 13 14 13
6 7 8 8 6 3 3 3 4 5 7 7 9 10 11 11 11 11 12 12 11 13 12 15 13 12 16 10 11 14 13 10
10 9 8 7 7 5 6 6 6 7 8 8 11 11 11 12 13 12 11 10 12 11 10 11 13 13 11 11 16 17 16 12
7 6 7 7 6 6 5 5 4 5 6 12 13 11 12 12 11 12 10 8 8 7 7 8 7 9 10 9 7 7 12 13
6 7 6 7 7 7 8 9 8 7 10 11 11 11 11 13 11 9 6 5 4 6 8 8 7 7 7 8 7 5 5 5
7 8 9 8 7 5 4 8 10 12 13 11 15 12 11 12 9 6 2 3 4 5 5 6 6 4 5 3 3 3 1 1
8 9 9 7 7 8 8 10 9 10 13 13 12 12 10 8 5 3 2 2 4 5 2 3 5 5 6 6 4 4 4 4
Wind_Direction
145 144 140 136 111 93 87 81 83 77 75 75 76 72 73 69 65 62 60 60 64 74 80 80 77 74 64 49 25 326 299 322
159 148 131 117 126 103 92 86 82 87 91 87 95 119 111 116 155 89 90 84 68 61 63 67 66 49 32 12 312 263 294 276
177 164 151 120 86 107 176 145 118 147 150 122 203 6 40 205 67 68 61 66 67 69 69 72 174 147 120 326 287 313 295 284
182 189 174 178 202 217 155 106 345 3 13 0 299 351 7 326 93 147 164 176 177 161 152 220 237 294 209 207 280 318 277 301
192 183 199 231 201 275 225 240 276 239 290 303 3 329 339 296 313 276 302 178 281 254 233 272 318 304 304 296 290 259 276 274
188 196 193 225 270 256 317 274 294 285 342 316 298 295 327 319 321 323 292 312 317 292 297 306 292 283 282 287 279 280 269 260
205 194 203 227 243 286 283 279 268 329 301 312 297 302 311 307 317 305 310 309 296 293 295 294 297 280 279 271 266 266 260 268
209 199 198 203 228 231 269 270 294 282 309 319 302 292 301 303 299 298 290 284 289 285 286 292 283 272 255 252 259 264 245 246
213 201 197 205 212 225 255 232 274 281 295 299 293 290 295 294 292 292 295 294 281 268 269 264 269 257 253 246 242 232 236 235
215 195 198 200 220 230 256 261 261 265 273 284 288 284 285 288 286 287 290 287 282 280 275 269 262 269 270 263 242 246 232 227
214 196 197 202 197 267 267 262 252 267 281 280 294 291 286 283 285 287 288 279 274 270 271 267 272 262 258 253 254 251 238 238
189 187 167 223 293 269 265 264 281 276 277 301 311 305 298 289 287 288 285 280 278 272 271 270 263 271 270 262 247 242 240 235
123 142 55 346 314 312 290 289 293 289 312 348 329 340 327 316 300 295 292 281 278 281 275 263 261 257 265 257 253 246 243 243
90 86 63 40 12 341 318 324 328 334 311 334 343 347 332 316 311 300 296 291 283 278 275 273 265 255 258 260 261 254 229 229
63 66 66 54 23 18 349 290 283 329 333 321 340 330 323 314 306 298 293 287 284 285 278 275 269 261 248 241 269 247 253 237
65 56 54 45 20 17 6 347 333 342 325 330 321 320 315 307 303 298 293 290 289 287 286 284 285 278 270 258 249 272 276 271
46 42 28 28 16 4 343 333 315 307 317 316 298 305 309 311 311 305 299 297 309 320 309 302 302 299 289 306 315 297 266 258
27 6 13 9 7 3 349 332 325 320 325 316 317 321 322 318 322 309 313 329 358 31 46 44 40 30 20 14 15 354 360 356
2 355 346 350 345 343 300 303 322 330 330 325 323 318 315 314 317 305 321 53 87 116 86 77 72 62 42 26 27 28 352 1
341 338 331 337 329 334 335 332 337 331 330 323 313 310 312 320 290 275 231 309 47 55 101 150 165 180 189 185 183 198 215 225